Dewpoint
69 73 75 75 75 75 74 73 73 73 73 73 72 72 73 73 72 72 72 72 73 72 71 71 71 72 72 71 71 72 72 72 71 71 70 70 72 72 71 72 74 70 75
70 73 75 75 75 74 74 73 73 73 73 72 72 72 71 71 71 71 72 73 73 72 72 72 72 71 71 71 71 71 72 72 72 72 71 71 70 73 71 71 73 69 74
70 72 73 75 75 74 73 73 73 73 72 72 71 70 71 72 72 73 73 73 73 72 71 71 71 71 71 71 72 72 72 73 73 72 72 69 67 70 71 71 72 72 72
68 71 73 75 75 73 73 73 73 72 71 71 72 72 73 73 73 73 73 73 72 71 72 73 71 71 71 72 72 71 72 71 71 72 71 70 67 70 73 74 73 74 72
70 72 73 75 74 73 73 72 73 72 73 73 73 73 73 72 72 71 71 71 71 70 70 70 70 69 69 70 72 72 72 72 72 71 69 67 67 72 74 74 74 73 73
71 72 73 74 74 73 71 72 74 73 73 72 72 71 71 71 70 69 69 68 68 68 68 68 68 68 68 68 68 68 69 69 69 66 64 64 66 72 74 75 74 74 73
70 71 72 74 74 73 73 73 72 71 71 70 70 70 69 69 68 67 67 67 66 66 67 66 66 66 66 66 67 67 67 68 65 63 61 65 68 73 73 72 71 73 74
68 71 71 73 74 73 72 71 70 69 68 68 67 67 67 66 66 64 61 61 61 61 62 62 62 62 63 63 65 66 67 67 64 62 61 67 72 72 70 66 71 71 73
68 69 70 71 70 71 70 69 68 66 64 64 65 65 65 65 65 63 59 59 59 59 60 60 62 62 62 63 63 66 66 67 64 62 60 66 72 71 64 67 72 73 73
67 68 69 69 69 68 67 68 66 64 63 64 63 62 63 64 63 60 64 59 58 60 60 61 63 64 66 67 67 67 68 67 63 60 57 67 72 71 71 71 71 73 73
63 66 68 68 68 65 65 65 66 65 64 63 62 65 62 58 55 54 60 58 59 62 65 64 66 66 64 61 63 64 64 63 62 50 61 71 69 69 68 69 69 71 71
62 64 66 67 65 63 62 64 62 62 60 58 58 58 56 56 57 57 59 63 64 63 64 63 64 63 58 53 51 57 51 49 49 48 66 69 68 66 66 68 68 69 70
61 62 64 65 64 64 62 63 64 61 60 58 57 57 57 57 56 57 54 56 55 57 54 55 53 53 53 53 53 53 54 54 56 56 61 67 67 67 65 64 67 69 68
62 65 66 67 67 64 65 65 62 60 59 58 57 57 56 57 57 58 55 56 54 53 52 54 52 53 54 54 53 54 54 57 59 59 62 66 66 66 65 65 64 65 68
66 66 67 69 68 66 64 64 60 58 58 58 57 57 57 57 57 57 55 54 53 52 51 52 51 54 53 53 53 54 57 58 59 60 63 66 66 66 67 67 67 66 66
66 68 69 69 68 67 65 61 60 56 59 58 57 57 57 57 57 57 53 52 52 53 54 54 54 52 53 52 53 54 57 58 58 60 61 62 64 65 65 66 67 68 68
66 68 68 68 66 65 64 63 58 59 58 58 56 56 56 56 55 55 51 50 50 52 54 52 54 52 52 51 52 53 56 57 59 60 59 60 61 62 63 64 64 64 64
67 68 68 67 67 65 64 62 57 57 55 57 57 55 55 55 56 52 51 49 53 54 52 53 53 51 53 53 50 53 55 55 57 57 60 60 59 59 60 61 61 62 62
67 66 66 66 65 64 63 59 56 57 56 56 56 55 55 54 55 51 49 52 51 51 51 52 53 51 51 50 49 50 52 53 55 55 55 56 58 57 58 60 60 59 60
65 65 65 65 63 62 62 58 57 56 55 56 55 54 54 53 53 54 50 52 51 50 50 50 49 50 49 48 48 51 50 52 53 54 54 54 57 56 56 56 56 57 58
64 64 63 63 64 63 59 58 55 55 54 54 54 53 51 53 51 52 49 49 51 49 50 50 51 46 50 46 44 43 51 53 53 52 51 51 50 54 55 56 55 55 56
64 63 62 63 63 61 59 58 56 55 55 55 54 52 52 51 50 50 52 51 51 50 48 48 49 49 46 47 41 43 42 46 39 52 52 50 49 49 49 51 53 55 56
63 62 63 63 62 62 60 57 54 54 54 54 52 51 50 51 52 51 50 51 48 48 50 48 49 48 43 42 41 38 38 33 36 47 50 49 49 50 49 50 49 49 54
62 63 62 63 62 62 57 53 49 49 50 53 53 50 50 50 50 51 50 50 48 47 48 48 48 48 43 43 39 40 41 37 34 33 37 44 49 46 43 39 41 48 48
63 62 62 62 62 60 56 55 52 54 53 51 53 49 49 48 50 50 50 51 50 50 47 49 47 45 46 45 45 43 38 38 38 37 34 37 37 38 40 36 39 41 47
62 61 62 62 60 58 58 57 55 53 51 51 50 49 48 48 48 49 50 48 48 48 49 48 48 43 45 46 45 44 42 36 37 37 36 35 35 36 38 37 39 40 43
Lifted_Index
-3 -4 -4 -4 -4 -4 -4 -3 -3 -2 -2 -2 -2 -2 -2 -2 -2 -2 -2 -2 -2 -2 -2 -2 -2 -2 -2 -2 -2 -2 -2 -2 -2 -1 -1 -1 -1 -1 -1 -2 -3 -3 -4
-3 -4 -4 -4 -4 -4 -3 -3 -3 -2 -2 -2 -2 -2 -2 -2 -2 -2 -2 -2 -2 -2 -2 -2 -2 -2 -2 -2 -2 -2 -2 -2 -2 -2 -2 -1 -1 -1 -1 -2 -3 -3 -3
-2 -3 -4 -4 -4 -3 -3 -3 -3 -2 -2 -2 -2 -2 -2 -2 -2 -3 -3 -3 -3 -2 -2 -2 -2 -2 -2 -3 -3 -3 -3 -3 -3 -3 -3 -2 -1 -1 -2 -3 -3 -3 -2
-2 -3 -3 -4 -3 -3 -2 -2 -2 -2 -2 -2 -2 -2 -3 -3 -3 -3 -3 -3 -2 -2 -2 -2 -2 -2 -2 -2 -3 -3 -3 -3 -3 -3 -3 -2 -2 -2 -3 -3 -3 -3 -3
-2 -2 -3 -3 -3 -2 -2 -2 -2 -2 -2 -3 -3 -3 -3 -3 -2 -2 -2 -2 -1 -1 -1 -1 -1 -1 -1 -1 -2 -2 -2 -2 -3 -2 -2 -2 -2 -3 -4 -4 -4 -4 -4
-2 -3 -3 -3 -3 -2 -2 -2 -2 -3 -2 -2 -2 -2 -2 -1 -1 -1 -0 -0 0 0 0 0 0 1 1 0 -0 -0 -1 -1 -1 -0 -0 -1 -2 -3 -4 -4 -4 -4 -4
-2 -2 -3 -3 -3 -3 -2 -2 -2 -2 -1 -1 -1 -1 -1 -0 0 1 2 2 2 2 2 2 2 2 2 2 1 1 0 0 0 1 1 -0 -2 -3 -3 -3 -3 -4 -5
-2 -2 -3 -3 -3 -2 -2 -1 -1 -0 -0 0 0 1 1 1 2 3 4 4 4 4 4 4 4 4 4 3 2 1 1 0 1 1 1 -0 -2 -3 -2 -2 -3 -4 -5
-2 -2 -2 -2 -2 -2 -1 -0 0 1 1 1 2 2 2 2 3 4 5 6 6 6 6 5 5 4 4 3 3 2 1 0 1 2 2 -0 -3 -3 -2 -2 -3 -4 -5
-2 -2 -2 -2 -1 -1 -0 0 1 1 1 2 3 4 3 3 4 5 6 7 7 6 6 5 5 4 4 4 3 3 1 1 2 3 2 -1 -2 -3 -3 -3 -4 -5 -5
-2 -2 -2 -2 -1 -0 -0 0 1 1 1 2 4 4 5 5 6 6 7 7 7 6 6 5 5 5 5 5 5 4 3 3 3 4 2 -1 -2 -2 -3 -3 -4 -4 -5
-1 -2 -2 -2 -1 -1 -1 -0 0 0 1 2 4 5 6 6 7 7 7 7 7 6 6 6 6 6 6 7 6 6 5 4 5 4 1 -0 -1 -1 -1 -2 -3 -4 -4
-2 -2 -2 -2 -2 -1 -1 -1 -1 -0 0 2 5 6 6 7 7 7 7 7 8 8 8 8 7 7 7 7 6 6 5 5 4 3 1 0 -0 -1 -1 -1 -2 -3 -4
-2 -2 -3 -3 -3 -2 -2 -2 -1 -1 0 2 5 6 7 7 7 7 8 8 9 9 9 8 8 8 7 7 6 6 5 4 3 2 1 0 -1 -1 -1 -1 -2 -2 -3
-4 -4 -4 -4 -3 -3 -2 -2 -2 -1 0 2 5 7 7 7 7 7 8 9 9 9 9 8 8 7 7 7 6 5 5 4 3 3 1 0 -0 -1 -1 -2 -2 -2 -3
-5 -5 -5 -4 -4 -3 -3 -2 -1 -0 1 4 6 7 7 7 7 8 9 9 9 9 8 8 8 7 7 7 6 5 5 4 3 3 2 1 1 -0 -1 -1 -2 -2 -2
-5 -5 -5 -5 -4 -4 -3 -2 0 2 4 5 6 7 7 7 8 8 9 10 10 9 8 8 8 8 7 7 6 6 5 4 3 3 3 2 2 1 0 0 -0 -0 -0
-5 -6 -6 -5 -5 -4 -3 -1 1 3 5 6 7 7 8 8 8 9 10 10 10 9 9 9 8 8 7 7 7 6 5 4 3 3 3 3 3 3 2 2 2 2 1
-5 -5 -5 -5 -4 -3 -2 -1 1 4 6 7 7 8 8 8 9 9 10 10 10 10 10 9 8 8 8 7 7 6 5 4 3 3 3 3 3 4 3 3 3 3 3
-5 -5 -5 -5 -4 -2 -1 -0 2 4 6 7 8 8 8 9 9 10 11 11 11 11 10 9 8 8 8 8 7 6 5 3 3 3 4 4 4 4 4 4 4 4 3
-5 -5 -5 -4 -3 -1 -1 1 2 4 6 7 8 8 9 9 10 10 11 11 11 11 11 10 9 9 9 9 8 7 4 3 3 4 4 4 4 5 5 5 4 4 4
-5 -5 -5 -4 -2 -1 0 1 2 4 5 7 8 9 9 10 10 11 11 11 11 11 11 11 10 10 10 10 10 7 5 4 4 4 4 5 5 5 5 5 5 5 5
-5 -6 -5 -4 -2 -1 1 2 3 4 5 7 7 8 9 10 10 10 11 11 11 11 11 11 11 11 11 11 10 8 6 6 5 5 5 5 5 5 6 7 7 6 6
-6 -6 -5 -4 -2 -1 1 2 3 4 6 6 7 8 10 10 10 10 10 10 11 11 10 11 11 11 11 11 10 9 8 7 7 7 6 6 6 7 7 8 8 8 8
-6 -6 -5 -3 -2 -1 0 2 3 4 5 6 7 8 10 10 10 10 10 10 10 10 10 10 11 11 11 10 9 8 8 8 8 8 7 7 7 8 8 9 8 8 9
-6 -6 -4 -3 -1 -1 0 2 3 4 5 6 7 9 10 10 10 10 10 10 10 10 10 10 10 11 11 9 9 8 8 8 8 8 7 7 8 8 8 8 8 9 9